Regional Weather Roundup
Issued by NWS Austin/San Antonio, TX

Current Version | Previous Version | Text Only | Print | Product List | Glossary On
Versions: 1 2 3 4 5 6 7 8 9 10 11 12 13 14 15 16 17 18 19 20 21 22 23 24 25 26 27 28 29 30 31 32 33 34 35 36 37 38 39 40 41 42 43 44 45 46 47 48 49 50
000
ASUS44 KEWX 180710
RWREWX
SOUTH TEXAS REGIONAL WEATHER ROUNDUP
NATIONAL WEATHER SERVICE AUSTIN/SAN ANTONIO TX
200 AM CDT FRI JUN 18 2021

NOTE: "FAIR" INDICATED FEW OR NO CLOUDS BELOW 12,000 FEET WITH NO
SIGNIFICANT WEATHER AND/OR OBSTRUCTIONS TO VISIBILITY.

* - THESE STATIONS ARE NOT NWS OR FAA STATIONS...AND ARE NOT SUBJECT
    TO NWS AND FAA QUALITY CONTROL.

TXZ171-172-183>190-180800-
TEXAS HILL COUNTRY AND EDWARDS PLATEAU

CITY           SKY/WX    TMP DP  RH WIND       PRES   REMARKS
JUNCTION       CLEAR     74  64  71 CALM      30.02F
*LLANO         PTCLDY    72  66  83 CALM      29.98F
BURNET         CLEAR     78  67  68 CALM      30.01F
*HORSESHOE BAY CLEAR     76  67  72 S3        29.99F
*LAGO VISTA    MOCLDY    78  69  72 SE3       30.00S
*KERRVILLE     CLEAR     69  65  88 CALM      30.02S
*FREDERICKSBRG CLEAR     69  64  83 CALM      30.01F
*ROCKSPRINGS     N/A     72  61  68 MISG      30.09F
*BOERNE        CLEAR     70  66  88 CALM      30.00F
*CASTROVILLE   CLEAR     76  69  77 CALM      29.98F HAZE
HONDO          CLEAR     72  68  87 N5        29.98S
*UVALDE        CLEAR     73  69  86 CALM      29.99F
DEL RIO        CLEAR     83  63  50 SE8       29.96F
*LAUGHLIN AFB  CLEAR     79  63  57 SE7       29.97F
*SPOFFORD      CLEAR     75  64  67 E3        29.91F
*EAGLE PASS    CLEAR     79  63  57 SE5       29.96S
CARRIZO SPRGS  PTCLDY    77  66  69 S3        29.94F
$$

TXZ173-191>194-202-209-217>225-228-180800-
CENTRAL AND SOUTH CENTRAL TEXAS

CITY           SKY/WX    TMP DP  RH WIND       PRES   REMARKS
GEORGETOWN     CLEAR     80  70  71 SE3       29.99F
*TAYLOR        CLEAR     76  73  92 CALM      29.97S
AUSTIN/BERGSTM PTCLDY    77  71  82 CALM      29.95F
AUSTIN/MABRY   PTCLDY    82  70  66 SE3       29.97F
*PFLUGERVILLE  CLEAR     77  72  83 CALM      29.96S
SAN MARCOS     CLEAR     78  74  87 S5        29.97F
NEW BRAUNFELS  CLEAR     76  72  87 SE5       29.95F
*RANDOLPH AFB  CLEAR     76  71  86 CALM      29.95F
*SEGUIN        CLEAR     75  72  89 CALM      29.99F
SAN ANTONIO    CLEAR     78  69  73 S6        29.97F
STINSON FIELD  CLEAR     79  73  82 CALM      29.95S
*KELLY FIELD   CLEAR     75  70  84 CALM      29.95S
*PLEASANTON    CLEAR     77  72  84 CALM      29.96S
*KENEDY        CLOUDY    78  73  85 CALM      29.95F
*LA GRANGE     MOCLDY    78  76  91 SE3       29.94S
*GIDDINGS      CLEAR     77  72  83 S5        29.97S
*GONZALES      CLEAR     78  73  83 CALM      29.96S
$$

TXZ163>164-176>182-195>201-210>213-226-227-235-180800-
SOUTHEAST TEXAS

CITY           SKY/WX    TMP DP  RH WIND       PRES   REMARKS
COLLEGE STN    CLEAR     79  71  76 SE6       29.96S
*BRYAN         CLEAR     75  73  94 E3        29.97F
*CALDWELL      CLEAR     76  73  89 SE5       29.97S
*CROCKETT      CLEAR     72  70  94 NE3       29.97S
*BRENHAM       CLEAR     78  72  82 CALM      29.96F
HUNTSVILLE     CLEAR     80  68  66 CALM      29.97S
CONROE         PTCLDY    70  69  97 CALM      29.96F
HOUSTON BUSH   CLEAR     73  66  78 CALM      29.94F
HOUSTON HOBBY  PTCLDY    78  67  68 N3        29.93F
*HOUSTON SW AP CLEAR     70  69  95 CALM      29.94F
PEARLAND       CLEAR     74  68  81 NW3       29.94F
HOUSTON HOOKS  PTCLDY    74  69  85 CALM      29.95F
ELLINGTON FLD  NOT AVBL
SUGAR LAND     CLEAR     73  69  87 CALM      29.93F
*HOUSTON EXEC  NOT AVBL
*CLEVELAND MUN CLEAR     70  70  99 CALM      29.97S
*WHARTON         N/A     72  65  79 CALM      29.94F
*COLUMBUS      FAIR      74  71  91 CALM      29.97S
*EAGLE LAKE    NOT AVBL
$$

TXZ214>216-236>238-180800-
THE UPPER TEXAS COAST

CITY           SKY/WX    TMP DP  RH WIND       PRES   REMARKS
*ORANGE        CLEAR     70  67  90 CALM      29.96S
PORT ARTHUR    CLEAR     76  67  73 NE6       29.93F
GALVESTON      CLEAR     84  66  54 E9        29.92F
ANGLETON       CLEAR     70  67  90 CALM      29.92F
*BAY CITY      CLEAR     72  67  87 N3        29.93F
PALACIOS       CLEAR     75  70  84 E5        29.92F
$$

TXZ229>234-239>247-180800-
TEXAS COASTAL BEND AND RIO GRANDE PLAINS

CITY           SKY/WX    TMP DP  RH WIND       PRES   REMARKS
VICTORIA       MOCLDY    77  74  90 N3        29.94F
*BEEVILLE      CLOUDY    76  76 100 CALM      29.93F
ROCKPORT       MOCLDY    84  69  60 E8        29.91F
*PORT ARANSAS  PTCLDY    85  71  62 E10       29.92F
*PORT LAVACA   MOCLDY    81  72  74 E6        29.93F
*INGLESIDE     MOCLDY    82  73  73 CALM      29.91F
CORPUS CHRISTI CLOUDY    77  73  87 S3        29.92F
CORPUS NAS     MOCLDY    84  72  67 SE9       29.91F
*ROBSTOWN      MOCLDY    79  72  77 CALM      29.93F
ALICE          NOT AVBL
KINGSVILLE NAS PTCLDY    76  72  87 CALM      29.92F
COTULLA        PTCLDY    80  70  71 S5        29.95F
LAREDO         NOT AVBL
$$

TXZ248>255-180800-
DEEP SOUTH TEXAS

CITY           SKY/WX    TMP DP  RH WIND       PRES   REMARKS
BROWNSVILLE    NOT AVBL
PORT ISABEL    PTCLDY    79  73  82 NW5       29.91F
HARLINGEN      NOT AVBL
*HEBBRONVILLE  PTCLDY    74  62  66 SE5       29.96F
MCALLEN        NOT AVBL
*WESLACO       MOCLDY    77  73  88 CALM      29.92S
FALFURRIAS     PTCLDY    72  70  93 CALM      29.93F
EDINBURG       PTCLDY    76  74  92 CALM      29.93F
*ZAPATA        PTCLDY    76  67  74 CALM      29.95F
$$

TXZ213>215-236>238-242>244-246-247-251-254-255-180800-
CMAN STATIONS

STATION/POSITION TIME  TEMP    WIND        PRES    WAVE
                       AIR SEA DIR/SP/G            HT/PER
                 (UTC) (F)     (DEG/KT/KT) (MB)    (FT/S)
NORTH JETTY/GLS  0624   85 85  110/ 13/ 15 1012.4
EAGLE POINT      0624   85 86  110/ 12/ 14 1013.1
MORGANS POINT    0624   82 85   90/  6/  7 1013.7
MISSION/ARANSAS  0600   85     100/ 11     1015.0
PORT O`CONNOR    0630   83 89  100/ 13/ 14 1012.8
PORT ARANSAS     0700   85 85  100/ 15/ 16   N/A
MALAQUITE BEACH  0630   84      80/ 10/ 13   N/A
BAFFIN BAY       0630   83 88   80/  8/ 11 1012.8
PORT ISABEL      0630   83 84   40/  4/  6 1013.9
$$



USA.gov is the U.S. government's official web portal to all federal, state and local government web resources and services.